LOT6PK EPMO-EPWR

Flight info

Callsign LOT6PK
Flight time 0h 33m
Altitude 32000
Route SOXER N869 UVIVI
Aircraft A320/M-SDE3FGHIRWY/LB1

Departure

Time 2026-05-04 19:54
Airport Warsaw Modlin Airport (EPMO)

Arrival

Time 2026-05-04 20:27
Airport Copernicus Wrocław Airport (EPWR)
Time Latitude Longitude Altitude Speed Heading
2026-05-04 19:37 52.44741 20.65256 358 ft 0 kts 204°
2026-05-04 19:43 52.44758 20.65267 358 ft 4 kts 194°
2026-05-04 19:44 52.44782 20.65271 355 ft 4 kts 147°
2026-05-04 19:44 52.44790 20.65253 358 ft 1 kts 81°
2026-05-04 19:44 52.44790 20.65247 358 ft 0 kts 81°
2026-05-04 19:49 52.44790 20.65251 358 ft 3 kts 81°
2026-05-04 19:49 52.44794 20.65289 359 ft 5 kts 81°
2026-05-04 19:49 52.44800 20.65362 351 ft 11 kts 82°
2026-05-04 19:50 52.44814 20.65523 350 ft 14 kts 81°
2026-05-04 19:50 52.44828 20.65675 350 ft 13 kts 82°
2026-05-04 19:50 52.44840 20.65810 356 ft 11 kts 81°
2026-05-04 19:50 52.44851 20.65929 355 ft 10 kts 81°
2026-05-04 19:51 52.44861 20.66033 350 ft 9 kts 81°
2026-05-04 19:51 52.44871 20.66136 350 ft 10 kts 81°
2026-05-04 19:51 52.44883 20.66268 353 ft 11 kts 81°
2026-05-04 19:51 52.44895 20.66396 352 ft 15 kts 81°
2026-05-04 19:52 52.44917 20.66633 350 ft 27 kts 81°
2026-05-04 19:52 52.44951 20.66987 355 ft 30 kts 76°
2026-05-04 19:52 52.45104 20.67052 354 ft 26 kts 353°
2026-05-04 19:52 52.45256 20.66984 350 ft 18 kts 328°
2026-05-04 19:53 52.45282 20.66879 354 ft 6 kts 266°
2026-05-04 19:53 52.45281 20.66870 352 ft 0 kts 262°
2026-05-04 19:53 52.45275 20.66801 351 ft 25 kts 261°
2026-05-04 19:53 52.45207 20.66066 353 ft 99 kts 262°
2026-05-04 19:54 52.45073 20.64613 350 ft 156 kts 262°
2026-05-04 19:54 52.44894 20.62758 830 ft 165 kts 260°
2026-05-04 19:54 52.44703 20.60924 1648 ft 162 kts 261°
2026-05-04 19:54 52.44509 20.59010 2114 ft 182 kts 261°
2026-05-04 19:55 52.44300 20.56876 2520 ft 202 kts 261°
2026-05-04 19:55 52.44063 20.54445 2903 ft 231 kts 260°
2026-05-04 19:55 52.43800 20.51682 3396 ft 258 kts 262°
2026-05-04 19:55 52.43538 20.48633 4008 ft 280 kts 262°
2026-05-04 19:56 52.43290 20.45368 4680 ft 297 kts 263°
2026-05-04 19:56 52.43057 20.41920 5344 ft 312 kts 263°
2026-05-04 19:56 52.42809 20.38355 6283 ft 311 kts 257°
2026-05-04 19:56 52.41957 20.35234 7696 ft 294 kts 234°
2026-05-04 19:57 52.40800 20.32603 9197 ft 277 kts 235°
2026-05-04 19:57 52.39708 20.30019 10233 ft 279 kts 236°
2026-05-04 19:57 52.38581 20.27267 10543 ft 303 kts 237°
2026-05-04 19:57 52.37383 20.24285 10861 ft 323 kts 237°
2026-05-04 19:58 52.36141 20.21167 11551 ft 329 kts 237°
2026-05-04 19:58 52.34885 20.18014 12339 ft 332 kts 237°
2026-05-04 19:58 52.33616 20.14836 13164 ft 335 kts 237°
2026-05-04 19:58 52.32340 20.11643 13939 ft 337 kts 237°
2026-05-04 19:59 52.31483 20.09507 14375 ft 340 kts 237°
2026-05-04 19:59 52.30176 20.06261 15032 ft 344 kts 237°
2026-05-04 19:59 52.28854 20.02978 15679 ft 348 kts 237°
2026-05-04 19:59 52.27516 19.99658 16327 ft 352 kts 237°
2026-05-04 20:00 52.26162 19.96298 16944 ft 356 kts 237°
2026-05-04 20:00 52.24794 19.92906 17576 ft 361 kts 237°
2026-05-04 20:00 52.22930 19.88294 18392 ft 366 kts 237°
2026-05-04 20:00 52.21999 19.85991 18751 ft 369 kts 237°
2026-05-04 20:01 52.20578 19.82483 19325 ft 372 kts 237°
2026-05-04 20:01 52.19144 19.78950 19904 ft 375 kts 237°
2026-05-04 20:01 52.17701 19.75389 20483 ft 378 kts 237°
2026-05-04 20:01 52.16242 19.71799 21045 ft 382 kts 237°
2026-05-04 20:02 52.14766 19.68186 21592 ft 385 kts 237°
2026-05-04 20:02 52.13277 19.64547 22126 ft 388 kts 238°
2026-05-04 20:02 52.11774 19.60872 22638 ft 391 kts 238°
2026-05-04 20:02 52.11480 19.60154 22736 ft 392 kts 238°
2026-05-04 20:03 52.09951 19.56427 23256 ft 395 kts 238°
2026-05-04 20:03 52.08421 19.52694 23701 ft 398 kts 238°
2026-05-04 20:03 52.06880 19.48941 23891 ft 399 kts 238°
2026-05-04 20:03 52.05334 19.45186 23939 ft 399 kts 238°
2026-05-04 20:04 52.03792 19.41445 23944 ft 399 kts 238°
2026-05-04 20:04 52.02266 19.37743 23944 ft 399 kts 238°
2026-05-04 20:04 52.00721 19.34004 23942 ft 399 kts 237°
2026-05-04 20:04 51.99173 19.30267 23945 ft 399 kts 237°
2026-05-04 20:05 51.97627 19.26529 23943 ft 399 kts 237°
2026-05-04 20:05 51.96055 19.22737 24056 ft 402 kts 237°
2026-05-04 20:05 51.94515 19.19025 24495 ft 403 kts 237°
2026-05-04 20:05 51.92946 19.15246 24905 ft 405 kts 237°
2026-05-04 20:06 51.91365 19.11445 25304 ft 408 kts 237°
2026-05-04 20:06 51.89778 19.07630 25696 ft 410 kts 237°
2026-05-04 20:06 51.88178 19.03798 25901 ft 411 kts 237°
2026-05-04 20:06 51.86572 18.99974 25943 ft 411 kts 237°
2026-05-04 20:07 51.84965 18.96155 25943 ft 411 kts 237°
2026-05-04 20:07 51.83357 18.92333 25946 ft 410 kts 237°
2026-05-04 20:07 51.81760 18.88508 25944 ft 410 kts 239°
2026-05-04 20:07 51.80443 18.84433 25944 ft 409 kts 248°
2026-05-04 20:08 51.79475 18.80126 25945 ft 408 kts 251°
2026-05-04 20:08 51.78529 18.75798 25944 ft 408 kts 251°
2026-05-04 20:08 51.77577 18.71479 25944 ft 408 kts 251°
2026-05-04 20:08 51.76618 18.67160 25946 ft 408 kts 251°
2026-05-04 20:09 51.75654 18.62851 25949 ft 408 kts 251°
2026-05-04 20:09 51.74467 18.58694 25947 ft 409 kts 238°
2026-05-04 20:09 51.72662 18.55138 25947 ft 412 kts 229°
2026-05-04 20:09 51.70704 18.51786 25506 ft 408 kts 228°
2026-05-04 20:10 51.68750 18.48499 24886 ft 404 kts 227°
2026-05-04 20:10 51.66799 18.45258 24279 ft 401 kts 227°
2026-05-04 20:10 51.64860 18.42046 23663 ft 399 kts 227°
2026-05-04 20:10 51.62937 18.38856 23011 ft 396 kts 227°
2026-05-04 20:11 51.61031 18.35690 22442 ft 391 kts 227°
2026-05-04 20:11 51.59150 18.32562 21907 ft 387 kts 227°
2026-05-04 20:11 51.57293 18.29467 21387 ft 382 kts 227°
2026-05-04 20:11 51.55454 18.26403 20897 ft 379 kts 227°
2026-05-04 20:12 51.53634 18.23374 20417 ft 375 kts 227°
2026-05-04 20:12 51.51832 18.20383 19951 ft 371 kts 227°
2026-05-04 20:12 51.50045 18.17419 19497 ft 368 kts 227°
2026-05-04 20:12 51.48273 18.14486 19028 ft 364 kts 227°
2026-05-04 20:13 51.46517 18.11585 18599 ft 361 kts 227°
2026-05-04 20:13 51.44773 18.08704 18121 ft 359 kts 227°
2026-05-04 20:13 51.43042 18.05848 17626 ft 356 kts 227°
2026-05-04 20:13 51.41344 18.03051 17157 ft 353 kts 226°
2026-05-04 20:14 51.39640 18.00249 16687 ft 349 kts 226°
2026-05-04 20:14 51.37950 17.97477 16208 ft 347 kts 226°
2026-05-04 20:14 51.36270 17.94721 15730 ft 345 kts 226°
2026-05-04 20:14 51.34598 17.91982 15238 ft 343 kts 226°
2026-05-04 20:15 51.32929 17.89253 14746 ft 342 kts 226°
2026-05-04 20:15 51.31271 17.86539 14252 ft 341 kts 226°
2026-05-04 20:15 51.29618 17.83832 13760 ft 339 kts 226°
2026-05-04 20:15 51.27973 17.81141 13221 ft 338 kts 226°
2026-05-04 20:16 51.26333 17.78466 12717 ft 335 kts 226°
2026-05-04 20:16 51.24704 17.75812 12204 ft 333 kts 226°
2026-05-04 20:16 51.23090 17.73186 11697 ft 330 kts 226°
2026-05-04 20:16 51.21485 17.70574 11181 ft 328 kts 226°
2026-05-04 20:17 51.19890 17.67979 10685 ft 327 kts 226°
2026-05-04 20:17 51.18317 17.65425 10536 ft 313 kts 226°
2026-05-04 20:17 51.16836 17.63030 10418 ft 301 kts 226°
2026-05-04 20:17 51.15394 17.60699 10293 ft 290 kts 226°
2026-05-04 20:18 51.14003 17.58453 10146 ft 281 kts 226°
2026-05-04 20:18 51.12643 17.56260 10009 ft 275 kts 226°
2026-05-04 20:18 51.11298 17.54091 9949 ft 275 kts 226°
2026-05-04 20:18 51.09953 17.51917 9713 ft 277 kts 226°
2026-05-04 20:19 51.08602 17.49735 9292 ft 276 kts 226°
2026-05-04 20:19 51.07257 17.47568 8904 ft 275 kts 226°
2026-05-04 20:19 51.05916 17.45411 8529 ft 274 kts 226°
2026-05-04 20:19 51.04576 17.43257 8152 ft 273 kts 226°
2026-05-04 20:20 51.03244 17.41122 7776 ft 272 kts 226°
2026-05-04 20:20 51.01917 17.38993 7403 ft 271 kts 225°
2026-05-04 20:20 51.00595 17.36875 7062 ft 267 kts 225°
2026-05-04 20:20 50.99312 17.34822 6691 ft 257 kts 225°
2026-05-04 20:21 50.98227 17.32655 6338 ft 254 kts 245°
2026-05-04 20:21 50.97861 17.29937 6093 ft 248 kts 271°
2026-05-04 20:21 50.99055 17.24925 5505 ft 246 kts 295°
2026-05-04 20:22 50.99818 17.22478 5124 ft 247 kts 295°
2026-05-04 20:22 51.00577 17.20032 4817 ft 246 kts 295°
2026-05-04 20:22 51.01330 17.17603 4435 ft 243 kts 295°
2026-05-04 20:22 51.02066 17.15215 3910 ft 238 kts 295°
2026-05-04 20:23 51.02774 17.12907 3559 ft 224 kts 296°
2026-05-04 20:23 51.03423 17.10805 3277 ft 197 kts 296°
2026-05-04 20:23 51.03990 17.08973 3013 ft 173 kts 296°
2026-05-04 20:23 51.04493 17.07343 2791 ft 156 kts 296°
2026-05-04 20:24 51.04956 17.05846 2597 ft 147 kts 296°
2026-05-04 20:24 51.05402 17.04402 2411 ft 144 kts 296°
2026-05-04 20:24 51.05841 17.02976 2220 ft 143 kts 296°
2026-05-04 20:24 51.06277 17.01563 2039 ft 142 kts 296°
2026-05-04 20:25 51.06711 17.00154 1848 ft 142 kts 296°
2026-05-04 20:25 51.07140 16.98763 1670 ft 142 kts 296°
2026-05-04 20:25 51.07572 16.97359 1471 ft 141 kts 296°
2026-05-04 20:25 51.08004 16.95956 1293 ft 141 kts 296°
2026-05-04 20:26 51.08430 16.94569 1099 ft 139 kts 296°
2026-05-04 20:26 51.08851 16.93199 919 ft 137 kts 296°
2026-05-04 20:26 51.09268 16.91845 738 ft 135 kts 296°
2026-05-04 20:26 51.09676 16.90509 575 ft 134 kts 296°
2026-05-04 20:27 51.10084 16.89179 407 ft 132 kts 296°
2026-05-04 20:27 51.10353 16.88319 406 ft 57 kts 295°
2026-05-04 20:27 51.10521 16.87762 402 ft 54 kts 296°
2026-05-04 20:27 51.10666 16.87294 403 ft 28 kts 298°
2026-05-04 20:28 51.10756 16.87278 403 ft 17 kts 35°
2026-05-04 20:28 51.10895 16.87376 402 ft 20 kts 26°
2026-05-04 20:28 51.10938 16.87496 401 ft 8 kts 120°
2026-05-04 20:28 51.10917 16.87572 403 ft 7 kts 115°
2026-05-04 20:29 51.10896 16.87638 403 ft 6 kts 117°
2026-05-04 20:29 51.10879 16.87696 403 ft 5 kts 114°
2026-05-04 20:29 51.10857 16.87771 403 ft 11 kts 115°
2026-05-04 20:29 51.10812 16.87920 403 ft 9 kts 116°
2026-05-04 20:30 51.10830 16.87960 402 ft 4 kts 27°
2026-05-04 20:30 51.10853 16.87978 403 ft 3 kts 26°
2026-05-04 20:30 51.10870 16.87991 403 ft 2 kts 26°
2026-05-04 20:30 51.10872 16.87992 403 ft 0 kts 26°